Weather History for St. Joseph, MO

Change the Weather History Date:

Tuesday, January 29, 2013

  Actual Average Record
Temperature  
Mean Temperature 51 °F 28 °F  
Max Temperature 68 °F 39 °F 68 °F (2013)
Min Temperature 33 °F 18 °F -13 °F (1966)
Degree Days  
Heating Degree Days 14 37  
Month to date heating degree days 973 1096  
Since 1 July heating degree days 3069 3309  
Cooling Degree Days 0 0  
Month to date cooling degree days 0 0  
Year to date cooling degree days 0 0  
Moisture  
Dew Point 40 °F    
Average Humidity 85    
Maximum Humidity 92    
Minimum Humidity 78    
Precipitation  
Precipitation 0.14 in 0.02 in 1.18 in (1909)
Month to date precipitation 0.57 0.51  
Year to date precipitation 0.57 0.51  
Sea Level Pressure  
Sea Level Pressure 29.59 in    
Wind  
Wind Speed 13 mph (NNW)    
Max Wind Speed 23 mph    
Max Gust Speed 30 mph    
Visibility 6 miles    
Events Rain , Thunderstorm    
T = Trace of Precipitation, MM = Missing Value Source: NWS Daily Summary

Daily Weather History Graph

Daily Weather History Graph

Search for Another Location

Airport:

Trip Planner

Search our weather history database for the weather conditions in past years. The results will help you decide how hot, cold, wet, or windy it might be!

Date:

Astronomy

Jan. 29, 2013 Rise Set
Actual Time 7:30 AM CST 5:36 PM CST
Civil Twilight 7:01 AM CST 6:04 PM CST
Nautical Twilight 6:28 AM CST 6:37 PM CST
Astronomical Twilight 5:57 AM CST 7:09 PM CST
Moon 8:32 PM CST (1/29) 8:27 AM CST (1/29)
Length of Visible Light 11h 03m
Length of Day
10h 06m
Waning Gibbous, 93% of the Moon is Illuminated
Jan 29
Waning Gibbous
Feb 3
Last Quarter
Feb 10
New
Feb 17
First Quarter
Feb 25
Full

Hourly Weather History & Observations

Time (CST) Temp. Windchill Dew Point Humidity Pressure Visibility Wind Dir Wind Speed Gust Speed Precip Events Conditions
12:53 AM 66.0 °F - 59.0 °F 78% 29.57 in 10.0 mi South 16.1 mph - N/A   Overcast
1:39 AM 66.2 °F - 59.0 °F 78% 29.57 in 10.0 mi SSW 16.1 mph 27.6 mph N/A Thunderstorm Overcast
1:53 AM 66.9 °F - 59.0 °F 76% 29.55 in 10.0 mi SSW 19.6 mph 28.8 mph N/A   Overcast
2:32 AM 66.2 °F - 59.0 °F 78% 29.56 in 10.0 mi SSW 15.0 mph - N/A   Scattered Clouds
2:53 AM 66.0 °F - 59.0 °F 78% 29.54 in 10.0 mi SSW 16.1 mph 23.0 mph N/A   Partly Cloudy
3:14 AM 66.2 °F - 59.0 °F 78% 29.56 in 10.0 mi SSW 18.4 mph 23.0 mph N/A   Mostly Cloudy
3:53 AM 66.0 °F - 59.0 °F 78% 29.55 in 10.0 mi SSW 16.1 mph - N/A   Overcast
4:15 AM 66.2 °F - 59.0 °F 78% 29.56 in 10.0 mi SSW 19.6 mph 26.5 mph N/A   Mostly Cloudy
4:28 AM 66.2 °F - 57.2 °F 73% 29.56 in 10.0 mi SSW 20.7 mph 29.9 mph N/A Thunderstorm Partly Cloudy
4:40 AM 55.4 °F - 51.8 °F 88% 29.58 in 8.0 mi WNW 17.3 mph 23.0 mph N/A   Mostly Cloudy
4:53 AM 51.1 °F - 48.0 °F 89% 29.58 in 7.0 mi NW 19.6 mph - 0.00 in   Mostly Cloudy
4:58 AM 50.0 °F - 46.4 °F 87% 29.60 in 6.0 mi NW 15.0 mph - N/A   Mostly Cloudy
5:07 AM 48.2 °F - 44.6 °F 87% 29.61 in 5.0 mi NNW 16.1 mph 24.2 mph N/A   Mostly Cloudy
5:53 AM 45.0 °F 40.1 °F 42.1 °F 90% 29.63 in 5.0 mi NW 9.2 mph - N/A   Overcast
6:53 AM 43.0 °F 36.8 °F 39.9 °F 89% 29.63 in 4.0 mi NW 11.5 mph - N/A   Overcast
7:53 AM 41.0 °F 37.1 °F 37.9 °F 89% 29.63 in 5.0 mi North 5.8 mph - N/A   Overcast
8:53 AM 39.9 °F 33.4 °F 37.0 °F 89% 29.67 in 6.0 mi NNW 10.4 mph - N/A   Overcast
9:53 AM 39.0 °F 32.3 °F 36.0 °F 89% 29.68 in 4.0 mi NNW 10.4 mph - 0.04 in Rain Light Rain
10:03 AM 39.2 °F 32.0 °F 35.6 °F 87% 29.67 in 3.0 mi NNW 11.5 mph - 0.01 in Rain Light Rain
10:31 AM 39.2 °F 33.6 °F 35.6 °F 87% 29.64 in 4.0 mi NNW 8.1 mph - 0.02 in   Overcast
10:53 AM 37.9 °F 30.5 °F 35.1 °F 89% 29.64 in 5.0 mi NNW 11.5 mph - 0.02 in   Overcast
11:53 AM 37.0 °F 30.4 °F 34.0 °F 89% 29.63 in 3.0 mi North 9.2 mph - N/A   Overcast
12:53 PM 37.0 °F 29.8 °F 34.0 °F 89% 29.60 in 3.0 mi North 10.4 mph - N/A   Overcast
1:53 PM 37.0 °F 28.1 °F 33.1 °F 86% 29.56 in 5.0 mi North 15.0 mph - N/A   Overcast
2:53 PM 37.0 °F 27.7 °F 33.1 °F 86% 29.55 in 6.0 mi North 16.1 mph - N/A   Overcast
3:53 PM 37.0 °F 29.3 °F 33.1 °F 86% 29.58 in 5.0 mi North 11.5 mph - N/A   Overcast
4:53 PM 36.0 °F 27.1 °F 33.1 °F 89% 29.56 in 6.0 mi North 13.8 mph - N/A   Overcast
5:08 PM 35.6 °F 28.0 °F 33.8 °F 93% 29.57 in 5.0 mi North 10.4 mph - N/A   Overcast
5:53 PM 36.0 °F 29.0 °F 34.0 °F 93% 29.63 in 5.0 mi NNW 9.2 mph - N/A   Overcast
6:19 PM 35.6 °F 27.5 °F 33.8 °F 93% 29.58 in 2.5 mi North 11.5 mph - N/A   Overcast
6:53 PM 36.0 °F 28.5 °F 34.0 °F 93% 29.58 in 2.5 mi North 10.4 mph - N/A   Overcast
7:01 PM 35.6 °F 28.0 °F 33.8 °F 93% 29.58 in 3.0 mi North 10.4 mph - N/A   Overcast
7:53 PM 36.0 °F 26.7 °F 33.1 °F 89% 29.61 in 5.0 mi North 15.0 mph - 0.03 in Rain Light Rain
7:58 PM 35.6 °F 26.6 °F 33.8 °F 93% 29.59 in 6.0 mi North 13.8 mph - 0.00 in Rain Light Rain
8:53 PM 35.1 °F 26.9 °F 32.0 °F 89% 29.59 in 7.0 mi NNE 11.5 mph - 0.03 in   Overcast
9:25 PM 35.6 °F 26.6 °F 32.0 °F 87% 29.55 in 5.0 mi NNE 13.8 mph - 0.01 in Rain Light Rain
9:40 PM 35.6 °F 27.1 °F 30.2 °F 81% 29.56 in 9.0 mi North 12.7 mph - 0.01 in   Overcast
9:43 PM 35.6 °F 27.1 °F 30.2 °F 81% 29.57 in 9.0 mi North 12.7 mph - 0.01 in   Overcast
9:50 PM 35.6 °F 27.1 °F 30.2 °F 81% 29.59 in 10.0 mi North 12.7 mph - 0.01 in   Overcast
9:53 PM 35.1 °F 26.4 °F 30.9 °F 85% 29.61 in 10.0 mi North 12.7 mph - 0.01 in   Overcast
10:53 PM 33.1 °F 21.2 °F 30.9 °F 92% 29.50 in 5.0 mi NNE 20.7 mph 25.3 mph 0.01 in   Overcast
11:02 PM 33.8 °F 22.8 °F 30.2 °F 87% 29.48 in 6.0 mi NNE 18.4 mph - 0.00 in   Overcast
11:53 PM 34.0 °F 25.0 °F 30.0 °F 85% 29.57 in 10.0 mi North 12.7 mph - 0.00 in   Overcast